Home > Weather > Richmond > Past weeks

Flag for U.S.A. Weather for the Past 2 Weeks in Richmond, Virginia, U.S.A.

Now
10 °F

Passing clouds.


Feels Like: 4 °F
Forecast: 11 / 26 °F
Wind: 3 mph from North

Location: Richmond International Airport

Current Time: Feb 14, 2016 at 7:50:49 AM

Latest Report: Feb 14, 2016 at 6:54 AM


Visibility: 10 mi

Pressure: 30.57 "Hg

Humidity: 67%

Dew point: 1 °F

Location of RichmondLocation

Historic Weather in Richmond — Graph

°F

Richmond Temperature Yesterday

Maximum temperature yesterday: 29 °F (at 1:54 PM)
Minimum temperature yesterday: 15 °F (at 11:54 PM)
Average temperature yesterday: 24 °F

High & Low Weather Summary for the Past Weeks

 TemperatureHumidityPressure
High71 °F (Feb 1, 1:54 PM)100% (Feb 3, 3:54 PM)30.57 "Hg (Feb 3, 3:54 PM)
Low10 °F (Feb 14, 5:54 AM)21% (Feb 13, 3:54 PM)29.56 "Hg (Feb 9, 1:54 PM)
Average38 °F64%30.07 "Hg
* Reported Jan 30 6:54 AM — Feb 14 6:54 AM, Richmond, Weather by CustomWeather, © 2016

Note: Actual official high and low records may vary slightly from our data, if they occured in-between our weather recording intervals... More about our weather records

Advertising

Richmond Weather History for the Previous 24 Hours

 ConditionsComfort  
Time TempWeatherWind HumidityBarometerVisibility
6:54 AM
Sun, Feb 14
10 °FPassing clouds.3 mph67%30.57 "Hg10 mi
5:54 AM10 °FClear.5 mph69%30.55 "Hg10 mi
4:54 AM12 °FClear.5 mph53%30.54 "Hg10 mi
3:54 AM12 °FClear.5 mph56%30.51 "Hg10 mi
2:54 AM12 °FClear.5 mph56%30.49 "Hg10 mi
1:54 AM13 °FClear.5 mph49%30.50 "Hg10 mi
12:54 AM14 °FClear.7 mph47%30.49 "Hg10 mi
11:54 PM
Sat, Feb 13
15 °FClear.9 mph44%30.48 "Hg10 mi
10:54 PM16 °FClear.13 mph40%30.48 "Hg10 mi
9:54 PM17 °FClear.12 mph39%30.47 "Hg10 mi
8:54 PM19 °FClear.9 mph34%30.45 "Hg10 mi
7:54 PM20 °FClear.15 mph32%30.42 "Hg10 mi
6:54 PM22 °FClear.14 mph30%30.39 "Hg10 mi
5:54 PM24 °FClear.18 mph25%30.35 "Hg10 mi
4:54 PM27 °FPassing clouds.20 mph22%30.32 "Hg10 mi
3:54 PM29 °FPassing clouds.15 mph21%30.28 "Hg10 mi
2:54 PM29 °FPassing clouds.22 mph22%30.27 "Hg10 mi
1:54 PM29 °FScattered clouds.24 mph25%30.27 "Hg10 mi
12:54 PM27 °FPartly sunny.17 mph28%30.27 "Hg10 mi
11:54 AM28 °FPassing clouds.22 mph26%30.29 "Hg10 mi
10:54 AM27 °FScattered clouds.17 mph27%30.29 "Hg10 mi
9:54 AM25 °FPassing clouds.21 mph29%30.27 "Hg10 mi
8:54 AM25 °FPassing clouds.16 mph30%30.26 "Hg10 mi
7:54 AM24 °FPassing clouds.12 mph35%30.24 "Hg10 mi
Weather by CustomWeather, © 2016

See weather overviewHow to use our weather pages